Theta_e
311 311 312 312 311 313 317 319 320 322 323 325 326 327 328 329 329 329 329 329 329 328 327 327 327 326 326 325 325 325 325 324 324 323 323 322 321 319 318 318 317 316 315
310 311 311 311 311 311 311 312 317 321 323 324 324 325 327 328 328 328 328 328 329 329 328 327 325 328 324 325 325 325 326 325 324 324 323 322 321 320 318 317 316 315 313
307 308 309 310 311 311 311 311 310 311 315 319 322 323 324 325 326 327 327 328 328 328 328 328 327 327 325 325 324 325 325 325 323 324 323 322 321 317 317 315 316 313 311
304 306 308 309 309 309 310 311 311 311 310 311 316 320 322 324 325 325 326 327 327 328 328 327 326 326 324 324 323 324 325 324 322 324 323 321 321 319 316 314 312 312 309
301 301 303 307 309 309 309 310 310 311 311 311 310 313 317 321 323 324 325 326 327 327 328 327 326 325 324 324 324 325 325 324 323 322 322 321 319 317 315 315 310 309 307
301 302 301 300 303 307 309 309 310 310 310 311 312 310 310 316 319 321 323 324 326 327 327 327 325 325 324 324 324 324 324 324 322 323 321 319 316 317 313 312 310 307 304
298 298 300 301 300 301 304 307 309 310 310 310 311 311 311 309 311 319 321 323 325 324 324 325 324 324 323 323 323 324 323 322 321 321 319 318 316 316 314 310 308 306 304
297 298 298 298 299 300 300 302 304 308 310 310 311 310 311 312 309 309 317 319 321 321 322 323 323 322 322 323 322 322 320 320 319 317 317 316 314 313 311 308 307 305 302
296 296 297 297 297 298 299 299 301 303 306 309 310 311 311 311 311 309 312 317 318 319 320 321 321 321 321 320 320 319 318 318 317 316 315 314 312 310 308 305 304 302 301
295 295 295 295 296 296 297 298 299 300 303 305 307 310 310 310 310 310 307 312 316 317 317 318 319 319 319 318 317 316 315 315 314 313 313 311 309 306 306 304 303 303 300
292 293 294 294 294 295 295 296 297 299 300 303 304 306 309 310 310 310 309 307 312 314 315 315 316 316 316 315 315 315 313 314 313 311 309 306 304 302 304 303 302 300 299
291 292 293 292 292 292 293 294 295 296 297 300 303 304 306 308 310 309 309 308 306 312 313 314 313 313 313 312 312 312 312 311 310 308 305 303 302 302 302 302 300 298 295
288 289 290 290 290 290 291 291 290 292 293 295 296 301 304 306 308 309 308 307 306 305 309 311 310 310 310 310 309 309 309 309 308 305 304 302 302 302 301 299 297 294 291
283 285 286 287 288 288 288 289 290 291 291 291 292 294 297 301 304 303 305 304 304 303 305 307 306 307 307 307 306 306 306 307 306 305 304 302 301 300 298 296 294 292 292
279 281 282 283 283 285 286 286 287 288 286 287 289 291 293 294 297 296 296 296 298 300 301 303 304 304 303 303 303 303 303 303 303 303 302 301 300 297 296 295 291 291 291
278 279 279 279 280 280 282 285 285 286 286 285 288 290 291 292 293 294 294 294 295 295 296 299 301 301 301 301 300 301 301 301 301 300 300 300 299 296 294 292 290 290 286
276 277 277 277 277 276 277 278 281 286 285 285 287 289 291 291 293 294 294 294 294 294 295 295 298 299 299 300 300 299 300 299 298 298 299 298 296 295 292 290 289 285 284
277 277 275 274 274 274 275 276 278 280 281 283 286 289 290 291 291 293 294 294 294 294 294 295 295 297 298 298 298 297 297 296 295 295 295 296 295 294 292 290 286 284 283
276 276 276 275 275 274 275 276 277 278 279 282 285 288 290 290 290 291 292 293 293 294 294 294 294 295 296 296 297 297 296 297 296 295 293 293 292 291 289 285 283 283 283
276 276 276 276 275 274 274 274 275 276 277 279 281 282 285 288 289 290 290 291 293 293 293 293 293 293 294 294 294 294 294 293 293 292 291 290 290 288 285 284 283 283 283
275 275 275 275 275 274 273 273 273 274 275 276 277 279 281 283 285 288 289 290 291 292 292 292 292 292 291 291 290 290 290 289 289 289 289 288 288 284 283 283 283 282 282
271 272 273 274 273 274 273 272 272 273 273 273 275 277 277 279 280 281 283 286 288 290 290 291 291 290 290 290 290 289 289 288 289 289 288 287 284 283 282 282 282 283 281
269 269 270 270 271 272 272 272 272 272 272 272 272 273 274 274 275 276 277 279 281 283 285 286 287 288 288 287 287 287 288 288 288 287 285 283 282 282 283 285 284 282 280
269 269 269 269 269 269 269 269 270 270 270 271 271 271 272 272 272 273 274 275 277 279 280 281 282 283 284 284 285 285 285 286 285 283 282 282 283 286 285 284 282 280 279
268 268 268 268 268 268 268 267 267 267 268 269 269 270 270 270 272 272 273 273 274 275 277 277 279 279 281 282 283 283 283 282 281 281 284 285 284 283 283 282 280 279 278
267 267 267 267 267 267 266 266 266 266 266 266 266 268 269 269 269 270 271 272 272 273 274 275 276 277 278 279 279 279 279 280 282 282 281 281 281 281 280 279 278 278 278
Wind_Speed
16 14 13 14 16 22 29 33 36 38 40 44 45 46 46 45 46 47 47 46 48 48 48 49 49 48 47 47 47 47 47 45 48 42 41 37 27 26 27 27 26 27 26
19 19 19 17 15 15 19 25 31 35 36 39 41 43 45 46 47 48 49 48 49 50 49 49 48 46 47 47 46 45 46 45 46 43 43 38 31 28 30 28 30 28 25
24 23 22 22 23 22 22 21 22 26 32 36 39 41 44 45 46 47 49 49 50 48 48 50 49 47 48 47 47 48 46 43 41 43 45 42 33 26 31 27 31 24 21
28 28 28 27 27 26 26 27 27 26 27 30 34 38 40 42 46 47 48 50 51 52 50 49 49 48 49 48 47 45 49 46 41 47 38 41 33 32 32 30 26 24 21
30 30 31 31 30 30 29 29 30 30 31 31 33 35 37 39 42 45 47 49 51 51 50 50 49 48 47 46 46 47 45 48 45 41 41 37 40 38 34 27 25 22 21
35 33 33 33 34 35 33 31 31 31 32 33 33 35 37 38 38 39 41 45 48 49 49 48 48 48 47 45 45 45 43 43 41 40 41 40 36 36 30 26 24 24 22
40 39 38 38 36 35 37 38 36 35 34 34 35 35 37 37 39 40 40 43 45 47 47 48 49 47 45 44 43 42 44 37 39 37 42 38 38 35 30 28 29 25 26
44 45 45 44 43 42 40 38 40 40 39 39 38 37 39 38 37 37 40 44 46 47 48 48 47 45 43 42 41 42 41 42 41 38 38 35 33 34 31 29 25 27 25
52 51 49 49 50 49 47 45 43 42 42 42 42 41 40 41 38 36 35 40 43 46 46 45 45 45 41 39 39 41 42 42 42 38 37 37 35 33 29 28 31 30 28
51 52 55 54 51 53 53 50 48 46 47 46 45 45 43 41 39 39 33 37 42 44 45 45 44 43 42 41 42 42 43 43 41 39 38 36 34 30 29 27 28 30 30
52 54 55 55 55 54 52 50 52 52 50 48 48 47 46 45 40 38 37 37 40 43 45 46 45 45 45 43 42 43 44 40 40 37 35 32 29 29 29 29 28 27 27
51 54 56 56 55 54 54 53 50 51 51 51 50 50 48 48 45 38 37 38 39 41 44 43 41 40 42 41 42 41 40 37 38 37 35 32 30 31 30 29 28 27 28
48 50 53 55 54 54 53 53 52 49 51 53 52 51 51 49 49 45 37 35 37 41 43 43 40 41 41 41 42 40 41 40 40 39 37 37 33 31 31 31 30 29 27
47 48 49 51 53 52 53 53 52 51 48 48 47 46 50 49 48 47 43 36 32 37 42 42 41 41 43 43 42 41 43 43 45 43 41 37 35 35 35 33 33 32 29
44 45 46 48 50 51 50 50 50 49 41 42 45 43 44 49 47 43 40 39 34 30 39 41 43 44 44 45 44 44 45 44 45 44 44 42 39 39 38 36 34 32 29
42 43 43 45 46 47 49 53 46 46 40 33 35 38 44 44 43 41 39 40 36 31 33 43 49 49 49 48 47 48 48 49 48 48 45 43 43 42 41 37 35 33 30
39 40 40 41 43 45 45 46 51 48 40 38 35 36 36 40 39 37 36 38 36 33 41 41 48 52 52 53 51 52 53 51 50 50 49 46 43 43 41 38 35 32 29
36 38 39 40 39 39 40 40 42 45 48 50 38 38 37 37 35 33 32 31 40 39 42 43 47 49 51 54 53 53 52 52 52 50 48 46 46 44 40 38 37 34 31
36 37 38 38 37 36 36 36 35 35 37 39 36 33 36 36 34 31 28 33 42 42 43 45 46 48 51 53 53 54 56 55 53 52 50 49 47 42 40 39 36 32 28
35 35 35 36 38 38 38 37 37 36 35 35 34 32 31 30 31 35 31 29 39 45 46 46 45 47 49 51 53 53 55 54 55 54 50 45 42 41 41 39 35 31 27
32 32 32 33 35 36 37 37 37 36 36 35 33 31 30 29 29 28 28 31 33 40 42 42 42 41 42 44 46 49 50 50 50 48 44 43 41 40 36 33 29 26 23
29 30 30 31 31 32 34 34 35 36 36 37 35 32 29 26 23 19 16 15 19 24 32 33 36 38 39 41 44 46 47 45 43 42 40 39 38 35 31 27 25 25 26
29 30 30 30 31 31 32 33 35 35 35 35 35 35 33 31 29 25 21 16 9 6 8 14 21 26 30 32 34 35 36 36 35 34 37 36 32 29 27 27 26 27 28
28 29 30 31 32 32 33 33 33 33 33 34 33 34 34 32 30 27 25 21 17 12 7 1 4 8 12 15 17 19 20 23 28 30 29 29 28 28 28 26 25 28 26
27 29 29 30 31 32 32 32 32 32 32 32 32 32 31 31 29 27 25 23 20 16 12 7 4 5 8 10 13 17 20 22 26 27 26 26 26 26 25 25 27 28 26
27 27 28 29 29 30 30 31 32 32 33 32 32 31 30 30 29 28 26 24 21 18 14 10 6 1 4 8 12 15 18 22 24 24 25 26 27 26 26 25 27 26 25
Wind_Direction
341 333 331 326 309 283 270 268 270 273 274 275 277 278 277 274 271 267 267 266 264 264 264 261 258 261 260 263 264 264 264 265 265 264 269 268 259 267 279 261 259 275 275
345 337 333 323 319 309 294 280 273 273 273 273 274 275 276 276 275 273 270 268 267 265 266 265 264 258 257 259 262 264 264 263 265 269 265 262 268 272 266 250 256 266 267
353 348 339 330 320 315 308 299 288 281 274 271 269 270 272 272 272 270 271 270 267 267 267 265 264 262 260 262 258 260 263 263 267 261 265 263 270 265 259 254 256 252 264
352 347 344 337 331 327 317 306 299 292 287 279 272 270 269 270 270 269 269 268 269 266 263 265 263 263 264 264 263 264 262 263 267 262 266 260 261 257 252 253 248 259 262
346 343 338 333 331 327 324 320 307 298 294 289 278 272 271 269 267 268 269 268 267 267 266 263 263 264 265 265 263 264 263 266 266 263 256 255 258 269 247 253 247 255 254
338 334 333 329 325 322 322 318 319 313 301 294 290 282 276 269 267 266 268 272 270 267 267 266 265 265 267 266 265 263 264 261 260 257 252 256 261 253 245 251 252 247 241
332 330 328 325 324 321 318 316 316 314 313 306 297 291 284 277 270 264 266 266 266 268 268 266 266 267 266 266 265 261 259 256 255 254 256 258 263 249 259 251 253 245 249
326 324 324 323 321 318 317 316 311 310 309 308 308 301 293 287 279 269 263 264 264 265 265 266 266 266 263 263 259 258 257 258 251 256 256 253 257 253 251 255 253 238 233
322 321 319 318 316 316 314 313 313 309 304 303 302 301 300 292 286 277 263 261 262 263 263 263 263 263 260 257 254 254 257 252 251 253 248 254 250 248 246 244 225 221 220
317 315 314 314 313 312 311 310 308 308 306 301 298 298 298 298 291 283 269 261 261 260 260 259 259 258 256 254 255 252 250 249 250 253 248 246 247 242 240 232 231 227 221
314 311 310 310 311 311 309 307 307 304 302 301 297 295 294 295 296 289 280 264 259 262 261 259 258 257 256 255 252 252 251 251 251 242 245 244 240 233 226 225 224 225 228
307 306 307 308 310 310 308 307 305 303 302 299 300 295 292 292 292 292 285 273 263 258 260 260 258 256 256 254 251 248 247 243 241 239 236 233 227 221 219 222 222 223 220
309 306 306 306 307 308 308 307 306 304 302 300 300 298 295 293 291 290 288 281 267 259 259 260 258 257 254 252 249 246 243 239 237 230 227 225 224 222 219 217 214 214 216
314 312 311 309 308 307 306 306 305 304 302 299 296 294 297 294 293 293 293 291 279 260 257 257 256 255 252 248 244 241 239 236 234 229 225 223 223 218 215 213 210 207 207
322 322 319 317 315 312 310 309 307 303 301 296 292 289 291 293 293 294 292 288 287 279 262 256 251 246 243 242 237 235 233 229 224 223 220 218 219 217 214 210 210 210 207
333 333 330 327 324 322 319 312 310 308 308 301 289 286 288 290 295 294 288 284 279 275 267 256 249 245 242 239 233 232 229 226 223 220 219 220 217 214 213 208 210 208 202
342 342 340 339 337 333 331 328 322 316 317 312 305 299 296 295 297 293 285 279 277 270 259 251 248 245 241 239 237 234 231 226 222 220 217 217 214 212 210 208 204 202 198
350 352 350 345 342 340 335 332 328 323 318 319 316 308 305 301 299 294 284 273 269 262 255 251 246 243 240 237 235 231 228 224 220 220 216 213 211 209 206 205 199 198 198
354 356 355 355 353 349 346 341 338 334 331 329 321 320 310 308 305 301 291 270 261 254 253 250 246 243 239 236 235 233 230 228 221 217 217 211 206 203 200 197 197 197 197
354 356 357 358 1 1 359 356 352 350 348 346 342 335 322 309 304 306 304 291 267 257 253 253 246 243 240 236 232 230 226 223 218 215 211 207 202 198 195 193 193 196 201
350 354 356 359 2 4 6 6 4 2 0 359 357 352 339 332 322 299 286 282 275 264 253 250 245 243 239 232 224 220 217 214 212 212 206 202 198 193 192 192 195 199 207
351 352 355 359 1 3 5 7 9 9 9 8 6 5 5 0 355 343 326 300 274 259 251 253 249 245 242 237 231 225 220 218 213 207 200 198 193 190 190 191 198 208 212
354 355 357 359 360 360 2 5 6 8 9 11 12 12 14 17 16 14 11 6 348 299 253 242 243 242 236 230 228 228 225 213 202 199 194 189 188 186 194 206 208 212 213
352 354 356 358 360 0 1 360 360 2 5 7 9 11 12 13 14 16 16 17 23 30 33 49 209 215 214 212 210 207 204 205 199 190 188 186 195 209 208 207 211 216 213
353 354 356 358 357 357 357 358 359 0 360 1 2 4 5 6 6 7 9 12 14 21 30 45 86 137 163 176 187 189 186 187 189 189 199 208 208 208 212 213 216 214 213
352 353 354 355 355 355 354 353 354 355 355 357 358 357 357 356 358 359 358 358 1 3 4 4 1 6 189 196 201 202 198 198 205 212 214 213 210 212 215 213 215 215 218